This demonstration page uses our WeatherBlox Daily Observations layout. Learn more.

Left ArrowRight Arrow

39.01783, -85.05884

Hourly Observations for October 19, 2015

Temp ( °F °C ) Dew Point ( °F °C ) Humidity (%) Winds ( mph kmh ) Pressure ( in mb ) Visibility ( mi km ) Precip ( " mm )
12:52 am 00:52 Clear 35 1.7 31 -0.6 85 85 N N/A 30.41 1030 10 16 N/A
1:52 am 01:52 Clear 36 2.2 33 0.6 89 89 N N/A 30.42 1030 10 16 N/A
2:52 am 02:52 Clear 35 1.7 30 -1.1 82 82 N N/A 30.42 1030 10 16 N/A
3:52 am 03:52 Clear 34 1.1 32 undefined 92 92 S 3 6 30.42 1030 10 16 N/A
4:52 am 04:52 Clear 37 2.8 29 -1.7 73 73 S 3 6 30.43 1030 10 16 N/A
5:52 am 05:52 Clear 36 2.2 31 -0.6 82 82 S 3 6 30.43 1031 10 16 N/A
6:52 am 06:52 Clear 35 1.7 29 -1.7 78 78 N N/A 30.44 1031 10 16 N/A
7:52 am 07:52 Clear 32 undefined 28 -2.2 85 85 S 6 9 30.44 1031 10 16 N/A
8:52 am 08:52 Sunny 40 4.4 31 -0.6 70 70 SSW 6 9 30.44 1031 10 16 N/A
9:52 am 09:52 Sunny 47 8.3 32 undefined 56 56 SSW 8 13 30.43 1031 10 16 N/A
10:52 am 10:52 Sunny 54 12.2 33 0.6 45 45 S 10 17 30.43 1030 10 16 N/A
11:52 am 11:52 Sunny 57 13.9 32 undefined 39 39 SSW 13 20 30.42 1030 10 16 N/A
12:52 pm 12:52 Sunny 60 15.6 33 0.6 36 36 SSW 12 19 30.39 1029 10 16 N/A
1:52 pm 13:52 Sunny 62 16.7 29 -1.7 29 29 SSW 13 20 30.35 1028 10 16 N/A
2:52 pm 14:52 Sunny 63 17.2 29 -1.7 28 28 SSW 12 19 30.32 1027 10 16 N/A
3:52 pm 15:52 Sunny 65 18.3 30 -1.1 27 27 SSW 12 19 30.29 1026 10 16 N/A
4:52 pm 16:52 Sunny 65 18.3 31 -0.6 28 28 SSW 7 11 30.28 1025 10 16 N/A
5:52 pm 17:52 Sunny 63 17.2 32 undefined 31 31 S 10 17 30.27 1025 10 16 N/A
6:52 pm 18:52 Mostly Sunny 57 13.9 33 0.6 41 41 S 8 13 30.26 1025 10 16 N/A
7:52 pm 19:52 Clear 56 13.3 32 undefined 40 40 S 7 11 30.26 1025 10 16 N/A
8:52 pm 20:52 Mostly Clear 51 10.6 34 1.1 52 52 S 5 7 30.27 1025 10 16 N/A
9:52 pm 21:52 Mostly Clear 50 10 34 1.1 54 54 S 7 11 30.26 1025 10 16 N/A
10:52 pm 22:52 Mostly Clear 53 11.7 34 1.1 48 48 S 10 17 30.25 1025 10 16 N/A
11:52 pm 23:52 Mostly Clear 53 11.7 34 1.1 48 48 SSW 8 13 30.25 1024 10 16 N/A

Powered by AerisWeather